{"data":{"norad_id":61743,"epoch":"2026-05-25T03:34:16.218048Z","epoch_age_seconds":61932,"freshness":"FRESH","line1":"1 61743U 24199J   26145.14879882  .00002271  00000+0  19816-3 0  9990","line2":"2 61743  97.3242 346.1072 0007090 137.4357 222.7417 14.97735534128542","mean_motion":14.97735534,"eccentricity":0.000709,"inclination_deg":97.3242,"raan_deg":346.1072,"arg_perigee_deg":137.4357,"mean_anomaly_deg":222.7417,"bstar":0.00019816,"rev_number":12854,"period_min":96.14514494119,"perigee_km":568.96584545826,"apogee_km":578.82382660176,"semimajor_km":6952.03183603,"source":"CELESTRAK","updated_at":"2026-05-25T13:38:02.531764Z"}}